| time (UTC) | temp F | wind direction | speed knots | gust knots | rain 1hr in | rain 24hr in | rain mn in | humidity % | barometer mb |
| 20260510164757 | 76 | 318 | 1.7 | 5.2 | 0.00 | 0.12 | 0.00 | 82 | 1019.1 |
| 20260510164257 | 75 | 318 | 1.7 | 5.2 | 0.00 | 0.13 | 0.00 | 82 | 1019.0 |
| 20260510163757 | 75 | 246 | 0.9 | 2.6 | 0.00 | 0.14 | 0.00 | 82 | 1019.0 |
| 20260510163257 | 76 | 349 | 0.9 | 3.5 | 0.00 | 0.15 | 0.00 | 80 | 1018.8 |
| 20260510163018 | 75 | 216 | 0.9 | 3.5 | 0.00 | 0.17 | 0.00 | 83 | 1018.8 |
| 20260510162257 | 75 | 290 | 0.9 | 2.6 | 0.00 | 0.19 | 0.00 | 85 | 1019.0 |
| 20260510162028 | 74 | 6 | 0.0 | 2.6 | 0.00 | 0.21 | 0.00 | 84 | 1018.8 |
| 20260510161257 | 75 | 112 | 0.0 | 1.7 | 0.00 | 0.25 | 0.00 | 85 | 1018.7 |
| 20260510161013 | 74 | 69 | 1.7 | 2.6 | 0.00 | 0.27 | 0.00 | 87 | 1018.6 |
| 20260510160304 | 73 | 72 | 1.7 | 3.5 | 0.00 | 0.29 | 0.00 | 85 | 1018.6 |
| 20260510155757 | 73 | 283 | 1.7 | 3.5 | 0.00 | 0.31 | 0.00 | 87 | 1018.7 |
| 20260510155306 | 73 | 271 | 2.6 | 2.6 | 0.00 | 0.33 | 0.00 | 87 | 1018.8 |
| 20260510155026 | 73 | 246 | 0.0 | 2.6 | 0.00 | 0.36 | 0.00 | 87 | 1018.8 |
| 20260510154257 | 72 | 290 | 0.0 | 4.3 | 0.00 | 0.38 | 0.00 | 88 | 1018.8 |
| 20260510154018 | 71 | 284 | 1.7 | 4.3 | 0.00 | 0.41 | 0.00 | 90 | 1018.8 |
| 20260510153258 | 71 | 306 | 1.7 | 2.6 | 0.00 | 0.43 | 0.00 | 89 | 1018.8 |
| 20260510152757 | 72 | 317 | 1.7 | 2.6 | 0.00 | 0.45 | 0.00 | 90 | 1018.6 |
| 20260510152258 | 72 | 243 | 0.0 | 1.7 | 0.00 | 0.46 | 0.00 | 90 | 1018.8 |
| 20260510151757 | 72 | 193 | 1.7 | 2.6 | 0.00 | 0.48 | 0.00 | 91 | 1018.7 |
| 20260510151257 | 71 | 273 | 0.0 | 2.6 | 0.00 | 0.50 | 0.00 | 91 | 1018.6 |
| 20260510150757 | 71 | 233 | 1.7 | 2.6 | 0.00 | 0.51 | 0.00 | 93 | 1018.9 |
| 20260510150257 | 70 | 249 | 0.9 | 4.3 | 0.00 | 0.52 | 0.00 | 92 | 1018.8 |
| 20260510145757 | 70 | 277 | 1.7 | 4.3 | 0.00 | 0.55 | 0.00 | 92 | 1018.8 |
| 20260510145258 | 70 | 289 | 1.7 | 1.7 | 0.00 | 0.57 | 0.00 | 93 | 1019.0 |
| 20260510144757 | 70 | 202 | 0.0 | 1.7 | 0.00 | 0.58 | 0.00 | 94 | 1019.1 |
| 20260510144257 | 70 | 306 | 0.0 | 1.7 | 0.00 | 0.59 | 0.00 | 94 | 1019.2 |
| 20260510143757 | 70 | 8 | 1.7 | 3.5 | 0.00 | 0.60 | 0.00 | 93 | 1019.0 |
| 20260510143257 | 70 | 302 | 0.0 | 3.5 | 0.00 | 0.61 | 0.00 | 95 | 1019.1 |
| 20260510143022 | 70 | 275 | 2.6 | 3.5 | 0.00 | 0.63 | 0.00 | 93 | 1018.8 |
| 20260510142523 | 70 | 282 | 0.0 | 1.7 | 0.00 | 0.64 | 0.00 | 93 | 1019.0 |
| 20260510142025 | 70 | 247 | 1.7 | 1.7 | 0.00 | 0.65 | 0.00 | 95 | 1019.1 |
| 20260510141311 | 69 | 291 | 0.0 | 1.7 | 0.00 | 0.67 | 0.00 | 96 | 1018.9 |
| 20260510140804 | 69 | 276 | 0.0 | 1.7 | 0.00 | 0.69 | 0.00 | 96 | 1018.8 |
| 20260510140523 | 69 | 309 | 0.0 | 1.7 | 0.00 | 0.71 | 0.00 | 97 | 1018.9 |
| 20260510135757 | 68 | 255 | 0.0 | 1.7 | 0.00 | 0.72 | 0.00 | 98 | 1018.8 |
| 20260510135257 | 68 | 330 | 0.0 | 1.7 | 0.00 | 0.72 | 0.00 | 98 | 1018.8 |
| 20260510134757 | 67 | 311 | 0.0 | 1.7 | 0.00 | 0.72 | 0.00 | 98 | 1018.5 |
| 20260510134257 | 68 | 140 | 0.9 | 1.7 | 0.00 | 0.73 | 0.00 | 98 | 1018.6 |
| 20260510133757 | 68 | 239 | 0.9 | 1.7 | 0.00 | 0.73 | 0.00 | 99 | 1018.6 |
| 20260510133258 | 67 | 285 | 0.9 | 1.7 | 0.00 | 0.74 | 0.00 | 99 | 1018.8 |
| 20260510132757 | 67 | 218 | 0.0 | 1.7 | 0.00 | 0.74 | 0.00 | 99 | 1018.5 |
| 20260510132258 | 67 | 279 | 1.7 | 1.7 | 0.00 | 0.74 | 0.00 | 99 | 1018.6 |
| 20260510131757 | 67 | 227 | 0.0 | 1.7 | 0.00 | 0.74 | 0.00 | 99 | 1018.4 |
| 20260510131258 | 67 | 264 | 0.9 | 1.7 | 0.00 | 0.74 | 0.00 | 99 | 1018.4 |
| 20260510130758 | 67 | 277 | 0.0 | 2.6 | 0.00 | 0.75 | 0.00 | 99 | 1018.3 |
| 20260510130257 | 67 | 298 | 0.9 | 2.6 | 0.00 | 0.76 | 0.00 | 99 | 1018.3 |
| 20260510125758 | 66 | 261 | 0.9 | 2.6 | 0.00 | 0.76 | 0.00 | 99 | 1018.3 |
| 20260510125523 | 66 | 281 | 0.9 | 2.6 | 0.00 | 0.77 | 0.00 | 99 | 1018.4 |
| 20260510125022 | 66 | 303 | 0.9 | 1.7 | 0.00 | 0.77 | 0.00 | 99 | 1018.2 |
| 20260510124257 | 66 | 234 | 1.7 | 1.7 | 0.00 | 0.77 | 0.00 | 99 | 1018.2 |
| 20260510123757 | 66 | 276 | 1.7 | 1.7 | 0.00 | 0.77 | 0.00 | 99 | 1018.1 |
| 20260510123258 | 65 | 287 | 0.0 | 2.6 | 0.00 | 0.77 | 0.00 | 99 | 1018.0 |
| 20260510122804 | 65 | 267 | 0.9 | 2.6 | 0.00 | 0.77 | 0.00 | 99 | 1017.9 |
| 20260510122258 | 66 | 293 | 0.0 | 1.7 | 0.00 | 0.77 | 0.00 | 99 | 1017.9 |
| 20260510121757 | 65 | 273 | 1.7 | 1.7 | 0.00 | 0.77 | 0.00 | 99 | 1017.8 |
| 20260510120757 | 65 | 284 | 1.7 | 2.6 | 0.00 | 0.77 | 0.00 | 99 | 1017.5 |
| 20260510120257 | 65 | 279 | 0.9 | 3.5 | 0.00 | 0.77 | 0.00 | 99 | 1017.5 |
| 20260510115757 | 65 | 269 | 0.0 | 3.5 | 0.00 | 0.77 | 0.00 | 99 | 1017.3 |
| 20260510115258 | 65 | 302 | 0.9 | 1.7 | 0.00 | 0.77 | 0.00 | 99 | 1017.2 |
| 20260510114758 | 65 | 265 | 0.9 | 1.7 | 0.00 | 0.77 | 0.00 | 99 | 1017.3 |
| 20260510114304 | 65 | 309 | 0.9 | 1.7 | 0.00 | 0.77 | 0.00 | 99 | 1017.2 |
| 20260510113757 | 65 | 254 | 1.7 | 1.7 | 0.00 | 0.77 | 0.00 | 99 | 1017.0 |
| 20260510113257 | 65 | 294 | 0.9 | 1.7 | 0.00 | 0.77 | 0.00 | 99 | 1016.9 |
| 20260510112258 | 65 | 235 | 0.0 | 1.7 | 0.00 | 0.77 | 0.00 | 99 | 1016.8 |
| 20260510112017 | 65 | 293 | 0.0 | 1.7 | 0.00 | 0.77 | 0.00 | 99 | 1016.8 |
| 20260510111257 | 65 | 304 | 0.0 | 1.7 | 0.00 | 0.77 | 0.00 | 99 | 1016.7 |
| 20260510110757 | 65 | 89 | 0.0 | 1.7 | 0.00 | 0.77 | 0.00 | 99 | 1016.8 |
| 20260510110519 | 65 | 310 | 0.0 | 1.7 | 0.00 | 0.77 | 0.00 | 99 | 1016.7 |
| 20260510110019 | 65 | 256 | 1.7 | 1.7 | 0.00 | 0.78 | 0.00 | 99 | 1016.4 |
| 20260510105257 | 65 | 263 | 0.9 | 1.7 | 0.00 | 0.78 | 0.00 | 99 | 1016.6 |
| 20260510104804 | 65 | 314 | 0.9 | 1.7 | 0.00 | 0.78 | 0.00 | 99 | 1016.4 |
| 20260510104304 | 65 | 286 | 0.9 | 1.7 | 0.00 | 0.78 | 0.00 | 99 | 1016.2 |
| 20260510103757 | 65 | 290 | 0.0 | 1.7 | 0.00 | 0.78 | 0.00 | 99 | 1016.2 |
| 20260510103258 | 65 | 313 | 0.0 | 1.7 | 0.00 | 0.78 | 0.00 | 99 | 1016.3 |
| 20260510102757 | 65 | 258 | 0.9 | 1.7 | 0.00 | 0.78 | 0.00 | 99 | 1016.2 |
| 20260510102257 | 65 | 255 | 0.0 | 1.7 | 0.00 | 0.78 | 0.00 | 99 | 1016.0 |
| 20260510101757 | 65 | 245 | 0.0 | 1.7 | 0.00 | 0.78 | 0.00 | 99 | 1016.0 |
| 20260510101257 | 65 | 252 | 0.9 | 1.7 | 0.00 | 0.78 | 0.00 | 99 | 1016.0 |
| 20260510100757 | 65 | 250 | 0.9 | 1.7 | 0.00 | 0.78 | 0.00 | 99 | 1016.1 |
| 20260510100257 | 65 | 212 | 0.0 | 1.7 | 0.00 | 0.78 | 0.00 | 99 | 1015.9 |
| 20260510095758 | 65 | 253 | 1.7 | 1.7 | 0.00 | 0.79 | 0.00 | 99 | 1015.8 |
| 20260510095257 | 65 | 262 | 0.9 | 1.7 | 0.00 | 0.79 | 0.00 | 99 | 1015.9 |
| 20260510095027 | 65 | 263 | 0.0 | 1.7 | 0.00 | 0.79 | 0.00 | 99 | 1015.9 |
| 20260510094257 | 65 | 279 | 0.9 | 1.7 | 0.00 | 0.79 | 0.00 | 99 | 1015.7 |
| 20260510093757 | 65 | 228 | 0.0 | 1.7 | 0.00 | 0.79 | 0.00 | 99 | 1015.7 |
| 20260510093257 | 65 | 249 | 0.9 | 2.6 | 0.00 | 0.79 | 0.00 | 99 | 1015.7 |
| 20260510092804 | 65 | 266 | 0.9 | 2.6 | 0.00 | 0.79 | 0.00 | 99 | 1015.6 |
| 20260510092257 | 65 | 294 | 1.7 | 2.6 | 0.00 | 0.79 | 0.00 | 99 | 1015.6 |
| 20260510091758 | 65 | 288 | 0.0 | 1.7 | 0.00 | 0.79 | 0.00 | 99 | 1015.5 |
| 20260510091251 | 65 | 293 | 0.9 | 1.7 | 0.00 | 0.79 | 0.00 | 98 | 1015.3 |
| 20260510090745 | 65 | 257 | 0.9 | 1.7 | 0.00 | 0.79 | 0.00 | 99 | 1015.2 |
| 20260510090509 | 65 | 251 | 0.9 | 1.7 | 0.00 | 0.80 | 0.00 | 98 | 1015.2 |
| 20260510085745 | 65 | 262 | 1.7 | 1.7 | 0.00 | 0.80 | 0.00 | 98 | 1015.0 |
| 20260510085245 | 65 | 245 | 0.0 | 1.7 | 0.00 | 0.81 | 0.00 | 98 | 1015.1 |
| 20260510084745 | 65 | 249 | 0.0 | 1.7 | 0.00 | 0.81 | 0.00 | 98 | 1015.3 |
| 20260510084245 | 66 | 240 | 0.9 | 1.7 | 0.00 | 0.81 | 0.00 | 98 | 1015.0 |
| 20260510083745 | 66 | 283 | 0.0 | 1.7 | 0.00 | 0.81 | 0.00 | 98 | 1015.1 |
| 20260510083245 | 66 | 268 | 0.0 | 2.6 | 0.00 | 0.81 | 0.00 | 98 | 1015.0 |
| 20260510082745 | 65 | 288 | 0.9 | 2.6 | 0.00 | 0.81 | 0.00 | 98 | 1014.8 |
| 20260510082245 | 66 | 271 | 0.0 | 1.7 | 0.00 | 0.81 | 0.00 | 98 | 1015.0 |
| 20260510081746 | 66 | 311 | 0.9 | 2.6 | 0.00 | 0.81 | 0.00 | 98 | 1014.8 |
| 20260510081245 | 66 | 268 | 0.9 | 2.6 | 0.00 | 0.81 | 0.00 | 98 | 1014.8 |
| 20260510080745 | 66 | 268 | 0.9 | 2.6 | 0.00 | 0.83 | 0.00 | 98 | 1014.7 |
| 20260510080253 | 66 | 275 | 0.9 | 2.6 | 0.00 | 0.83 | 0.00 | 98 | 1014.8 |
| 20260510075745 | 66 | 265 | 1.7 | 2.6 | 0.00 | 0.83 | 0.00 | 98 | 1014.5 |
| 20260510075246 | 66 | 268 | 0.9 | 2.6 | 0.00 | 0.84 | 0.00 | 98 | 1014.4 |
| 20260510074753 | 66 | 277 | 1.7 | 2.6 | 0.00 | 0.85 | 0.00 | 98 | 1014.5 |
| 20260510074245 | 66 | 260 | 0.9 | 1.7 | 0.00 | 0.86 | 0.00 | 98 | 1014.3 |
| 20260510073745 | 66 | 7 | 0.0 | 1.7 | 0.00 | 0.87 | 0.00 | 98 | 1014.4 |
| 20260510073509 | 66 | 257 | 0.9 | 1.7 | 0.00 | 0.87 | 0.00 | 98 | 1014.6 |
| 20260510072745 | 66 | 281 | 0.9 | 2.6 | 0.00 | 0.87 | 0.00 | 99 | 1014.6 |
| 20260510072246 | 67 | 297 | 0.9 | 2.6 | 0.00 | 0.88 | 0.00 | 98 | 1014.8 |
| 20260510071745 | 67 | 298 | 1.7 | 2.6 | 0.00 | 0.88 | 0.00 | 99 | 1014.7 |
| 20260510071246 | 67 | 248 | 0.0 | 2.6 | 0.00 | 0.89 | 0.00 | 99 | 1014.9 |
| 20260510070746 | 67 | 317 | 1.7 | 2.6 | 0.00 | 0.89 | 0.00 | 99 | 1014.7 |
| 20260510070245 | 67 | 285 | 0.9 | 1.7 | 0.00 | 0.89 | 0.00 | 99 | 1014.7 |
| 20260510065745 | 67 | 279 | 0.9 | 2.6 | 0.00 | 0.89 | 0.00 | 98 | 1014.7 |
| 20260510065245 | 67 | 255 | 0.9 | 2.6 | 0.00 | 0.89 | 0.00 | 98 | 1014.7 |
| 20260510064745 | 67 | 288 | 0.9 | 1.7 | 0.00 | 0.89 | 0.00 | 98 | 1014.7 |
| 20260510063746 | 67 | 266 | 0.0 | 1.7 | 0.00 | 0.89 | 0.00 | 98 | 1014.6 |
| 20260510063246 | 67 | 241 | 0.0 | 1.7 | 0.00 | 0.89 | 0.00 | 98 | 1014.6 |
| 20260510062745 | 67 | 219 | 0.0 | 1.7 | 0.00 | 0.89 | 0.00 | 98 | 1014.4 |
| 20260510062516 | 67 | 269 | 0.0 | 1.7 | 0.00 | 0.89 | 0.00 | 98 | 1014.5 |
| 20260510061746 | 67 | 224 | 0.0 | 1.7 | 0.00 | 0.89 | 0.00 | 98 | 1014.2 |
| 20260510061507 | 67 | 5 | 0.0 | 1.7 | 0.00 | 0.89 | 0.00 | 98 | 1014.3 |
| 20260510060746 | 67 | 221 | 0.0 | 1.7 | 0.00 | 0.89 | 0.00 | 98 | 1014.5 |
| 20260510060245 | 67 | 290 | 0.0 | 1.7 | 0.00 | 0.89 | 0.00 | 98 | 1014.6 |
| 20260510060009 | 66 | 251 | 0.0 | 1.7 | 0.00 | 0.89 | 0.00 | 98 | 1014.6 |
| 20260510055239 | 66 | 313 | 1.7 | 1.7 | 0.00 | 0.89 | 0.00 | 98 | 1014.7 |
| 20260510054733 | 66 | 237 | 0.0 | 1.7 | 0.00 | 0.89 | 0.00 | 98 | 1014.8 |
| 20260510054249 | 67 | 278 | 0.9 | 2.6 | 0.00 | 0.89 | 0.00 | 98 | 1014.7 |
| 20260510053233 | 67 | 322 | 1.7 | 1.7 | 0.00 | 0.89 | 0.00 | 98 | 1014.4 |
| 20260510052734 | 67 | 267 | 0.9 | 1.7 | 0.00 | 0.89 | 0.00 | 98 | 1014.9 |
| 20260510052233 | 67 | 283 | 0.0 | 1.7 | 0.00 | 0.89 | 0.00 | 98 | 1014.6 |
| 20260510051733 | 67 | 236 | 0.9 | 1.7 | 0.00 | 0.89 | 0.00 | 98 | 1014.5 |
| 20260510051234 | 67 | 227 | 0.0 | 1.7 | 0.00 | 0.89 | 0.00 | 98 | 1015.0 |
| 20260510050233 | 67 | 278 | 0.9 | 1.7 | 0.00 | 0.89 | 0.00 | 98 | 1015.2 |
| 20260510045740 | 67 | 273 | 0.9 | 2.6 | 0.00 | 0.89 | 0.89 | 98 | 1015.1 |
| 20260510045233 | 67 | 292 | 2.6 | 2.6 | 0.00 | 0.89 | 0.89 | 98 | 1015.1 |
| 20260510044953 | 67 | 285 | 1.7 | 2.6 | 0.00 | 0.89 | 0.89 | 98 | 1015.3 |
| 20260510044451 | 67 | 307 | 0.9 | 2.6 | 0.00 | 0.89 | 0.89 | 98 | 1015.4 |
| 20260510043959 | 67 | 291 | 1.7 | 2.6 | 0.00 | 0.89 | 0.89 | 98 | 1015.2 |
| 20260510043233 | 67 | 315 | 0.9 | 1.7 | 0.00 | 0.89 | 0.89 | 98 | 1015.4 |
| 20260510042733 | 67 | 280 | 0.9 | 2.6 | 0.00 | 0.89 | 0.89 | 98 | 1015.5 |
| 20260510042233 | 67 | 234 | 0.9 | 2.6 | 0.00 | 0.89 | 0.89 | 98 | 1015.6 |
| 20260510041733 | 67 | 273 | 1.7 | 1.7 | 0.00 | 0.89 | 0.89 | 98 | 1015.6 |
| 20260510041233 | 67 | 258 | 0.0 | 2.6 | 0.00 | 0.89 | 0.89 | 98 | 1015.9 |
| 20260510040733 | 67 | 297 | 1.7 | 2.6 | 0.00 | 0.89 | 0.89 | 98 | 1015.9 |
| 20260510040234 | 67 | 246 | 0.0 | 3.5 | 0.00 | 0.89 | 0.89 | 98 | 1016.0 |
| 20260510035953 | 67 | 313 | 2.6 | 3.5 | 0.00 | 0.89 | 0.89 | 98 | 1016.3 |
| 20260510035233 | 67 | 273 | 0.9 | 2.6 | 0.00 | 0.89 | 0.89 | 98 | 1016.0 |
| 20260510034734 | 67 | 266 | 0.0 | 1.7 | 0.00 | 0.89 | 0.89 | 98 | 1015.5 |
| 20260510034233 | 67 | 299 | 0.9 | 1.7 | 0.00 | 0.89 | 0.89 | 98 | 1015.5 |
| 20260510033734 | 67 | 129 | 0.0 | 1.7 | 0.00 | 0.89 | 0.89 | 98 | 1015.4 |
| 20260510033233 | 67 | 311 | 0.0 | 1.7 | 0.00 | 0.89 | 0.89 | 98 | 1015.4 |
| 20260510032733 | 67 | 214 | 0.0 | 1.7 | 0.00 | 0.89 | 0.89 | 98 | 1015.2 |
| 20260510032233 | 67 | 251 | 0.0 | 1.7 | 0.00 | 0.89 | 0.89 | 98 | 1015.8 |
| 20260510031734 | 67 | 233 | 0.9 | 1.7 | 0.00 | 0.89 | 0.89 | 98 | 1015.8 |
| 20260510031233 | 67 | 264 | 0.9 | 1.7 | 0.00 | 0.89 | 0.89 | 98 | 1015.5 |
| 20260510030733 | 67 | 271 | 0.9 | 1.7 | 0.00 | 0.89 | 0.89 | 98 | 1015.7 |
| 20260510030233 | 67 | 308 | 0.9 | 1.7 | 0.00 | 0.89 | 0.89 | 98 | 1015.8 |
| 20260510030001 | 67 | 333 | 0.0 | 1.7 | 0.00 | 0.89 | 0.89 | 98 | 1015.6 |
| 20260510025234 | 67 | 309 | 0.0 | 1.7 | 0.00 | 0.89 | 0.89 | 98 | 1015.6 |
| 20260510024733 | 67 | 253 | 1.7 | 1.7 | 0.00 | 0.89 | 0.89 | 98 | 1015.6 |
| 20260510024233 | 67 | 267 | 0.9 | 1.7 | 0.00 | 0.89 | 0.89 | 98 | 1015.3 |
| 20260510023734 | 67 | 298 | 0.9 | 1.7 | 0.00 | 0.89 | 0.89 | 98 | 1015.2 |
| 20260510023500 | 68 | 248 | 0.0 | 1.7 | 0.00 | 0.89 | 0.89 | 98 | 1015.0 |
| 20260510022733 | 68 | 245 | 0.9 | 1.7 | 0.00 | 0.89 | 0.89 | 98 | 1015.1 |
| 20260510022233 | 68 | 260 | 0.0 | 0.9 | 0.00 | 0.89 | 0.89 | 98 | 1014.8 |
| 20260510021733 | 68 | 269 | 0.0 | 1.7 | 0.00 | 0.89 | 0.89 | 98 | 1015.0 |
| 20260510021234 | 68 | 242 | 0.0 | 1.7 | 0.00 | 0.90 | 0.89 | 98 | 1015.0 |
| 20260510020733 | 68 | 259 | 0.0 | 1.7 | 0.00 | 0.91 | 0.89 | 98 | 1015.0 |
| 20260510020234 | 68 | 269 | 0.9 | 1.7 | 0.00 | 0.91 | 0.89 | 98 | 1015.0 |
| 20260510015733 | 68 | 327 | 0.0 | 1.7 | 0.00 | 0.92 | 0.89 | 98 | 1015.1 |
| 20260510015234 | 68 | 315 | 0.9 | 1.7 | 0.00 | 0.93 | 0.89 | 98 | 1015.3 |
| 20260510014733 | 68 | 310 | 0.0 | 1.7 | 0.00 | 0.94 | 0.89 | 98 | 1015.3 |
| 20260510014452 | 68 | 255 | 0.0 | 1.7 | 0.00 | 0.94 | 0.89 | 98 | 1015.4 |
| 20260510013734 | 68 | 289 | 0.9 | 1.7 | 0.00 | 0.94 | 0.89 | 98 | 1015.3 |
| 20260510013233 | 68 | 309 | 0.0 | 1.7 | 0.01 | 0.94 | 0.89 | 98 | 1015.2 |
| 20260510012952 | 68 | 293 | 0.0 | 1.7 | 0.01 | 0.94 | 0.89 | 98 | 1014.9 |
| 20260510012234 | 68 | 246 | 0.0 | 1.7 | 0.01 | 0.94 | 0.89 | 98 | 1014.8 |
| 20260510011733 | 68 | 39 | 0.0 | 1.7 | 0.01 | 0.94 | 0.89 | 98 | 1014.7 |
| 20260510011233 | 68 | 242 | 0.0 | 1.7 | 0.01 | 0.94 | 0.89 | 98 | 1014.9 |
| 20260510010733 | 68 | 26 | 0.9 | 1.7 | 0.02 | 0.95 | 0.89 | 98 | 1014.9 |
| 20260510010234 | 68 | 283 | 0.0 | 1.7 | 0.01 | 0.94 | 0.89 | 98 | 1015.0 |
| 20260510005741 | 68 | 264 | 0.0 | 1.7 | 0.01 | 0.94 | 0.89 | 98 | 1014.9 |
| 20260510005234 | 68 | 295 | 0.0 | 1.7 | 0.01 | 0.94 | 0.89 | 98 | 1015.1 |
| 20260510004733 | 68 | 263 | 0.0 | 2.6 | 0.01 | 0.94 | 0.89 | 98 | 1015.0 |
| 20260510004233 | 68 | 256 | 1.7 | 2.6 | 0.01 | 0.95 | 0.89 | 98 | 1015.1 |
| 20260510003733 | 68 | 294 | 0.0 | 2.6 | 0.01 | 0.95 | 0.89 | 98 | 1015.1 |
| 20260510003234 | 68 | 248 | 1.7 | 2.6 | 0.01 | 0.94 | 0.88 | 98 | 1015.2 |
| 20260510002733 | 68 | 289 | 1.7 | 2.6 | 0.01 | 0.94 | 0.88 | 98 | 1015.2 |
| 20260510002233 | 68 | 333 | 0.0 | 3.5 | 0.01 | 0.94 | 0.88 | 98 | 1015.3 |
| 20260510001733 | 68 | 258 | 2.6 | 3.5 | 0.01 | 0.94 | 0.88 | 98 | 1015.1 |
| 20260510001459 | 68 | 305 | 1.7 | 1.7 | 0.02 | 0.94 | 0.88 | 98 | 1014.7 |
| 20260510000733 | 68 | 241 | 0.9 | 1.7 | 0.01 | 0.94 | 0.87 | 97 | 1014.3 |
| 20260510000233 | 68 | 322 | 0.0 | 1.7 | 0.02 | 0.94 | 0.87 | 97 | 1014.3 |
| 20260509235733 | 68 | 322 | 0.9 | 1.7 | 0.02 | 0.94 | 0.87 | 97 | 1014.0 |
| 20260509235502 | 68 | 125 | 0.0 | 1.7 | 0.02 | 0.94 | 0.87 | 97 | 1013.6 |
| 20260509234746 | 68 | 240 | 0.0 | 1.7 | 0.03 | 0.94 | 0.87 | 97 | 1013.7 |
| 20260509234233 | 69 | 309 | 0.0 | 1.7 | 0.03 | 0.94 | 0.87 | 97 | 1013.4 |
| 20260509233734 | 69 | 269 | 0.0 | 2.6 | 0.04 | 0.94 | 0.87 | 97 | 1013.9 |
| 20260509233234 | 69 | 265 | 1.7 | 2.6 | 0.04 | 0.94 | 0.87 | 97 | 1014.3 |
| 20260509232734 | 69 | 218 | 1.7 | 2.6 | 0.05 | 0.94 | 0.87 | 97 | 1014.6 |
| 20260509232233 | 69 | 256 | 1.7 | 2.6 | 0.05 | 0.93 | 0.87 | 97 | 1014.6 |
| 20260509231733 | 69 | 229 | 0.9 | 3.5 | 0.04 | 0.93 | 0.87 | 97 | 1014.4 |
| 20260509231454 | 69 | 272 | 0.9 | 3.5 | 0.04 | 0.93 | 0.86 | 97 | 1014.1 |
| 20260509230740 | 69 | 264 | 1.7 | 3.5 | 0.04 | 0.93 | 0.86 | 97 | 1014.3 |
| 20260509230459 | 69 | 268 | 1.7 | 3.5 | 0.04 | 0.93 | 0.86 | 97 | 1013.9 |
| 20260509225733 | 69 | 314 | 1.7 | 2.6 | 0.04 | 0.93 | 0.85 | 97 | 1013.2 |
| 20260509225233 | 69 | 284 | 0.0 | 2.6 | 0.04 | 0.93 | 0.85 | 97 | 1013.2 |
| 20260509224733 | 69 | 254 | 0.9 | 2.6 | 0.04 | 0.93 | 0.85 | 97 | 1013.4 |
| 20260509224233 | 69 | 303 | 0.9 | 1.7 | 0.03 | 0.93 | 0.84 | 97 | 1013.3 |
| 20260509223733 | 69 | 189 | 0.9 | 1.7 | 0.02 | 0.93 | 0.84 | 97 | 1013.3 |
| 20260509223233 | 69 | 165 | 0.9 | 1.7 | 0.02 | 0.93 | 0.83 | 97 | 1013.3 |
| 20260509222948 | 69 | 246 | 0.0 | 1.7 | 0.02 | 0.93 | 0.83 | 97 | 1013.6 |
| 20260509222502 | 69 | 232 | 0.9 | 1.7 | 0.02 | 0.93 | 0.82 | 97 | 1014.1 |
| 20260509221733 | 69 | 245 | 0.0 | 1.7 | 0.02 | 0.93 | 0.82 | 97 | 1014.0 |
| 20260509221234 | 69 | 286 | 1.7 | 1.7 | 0.02 | 0.94 | 0.82 | 97 | 1014.0 |
| 20260509220953 | 69 | 335 | 0.9 | 2.6 | 0.02 | 0.94 | 0.82 | 97 | 1013.8 |
| 20260509220233 | 69 | 214 | 0.0 | 2.6 | 0.02 | 0.95 | 0.81 | 97 | 1013.8 |
| 20260509215733 | 69 | 317 | 1.7 | 1.7 | 0.02 | 0.96 | 0.81 | 97 | 1013.9 |
| 20260509215233 | 69 | 256 | 0.0 | 1.7 | 0.02 | 0.96 | 0.81 | 97 | 1014.0 |
| 20260509214733 | 69 | 315 | 0.0 | 1.7 | 0.02 | 0.96 | 0.81 | 97 | 1014.0 |
| 20260509214234 | 69 | 257 | 0.0 | 2.6 | 0.02 | 0.97 | 0.81 | 97 | 1013.7 |
| 20260509213733 | 69 | 286 | 0.0 | 2.6 | 0.02 | 0.98 | 0.81 | 96 | 1014.3 |
| 20260509213233 | 69 | 290 | 1.7 | 1.7 | 0.02 | 1.00 | 0.81 | 96 | 1014.0 |
| 20260509212734 | 69 | 300 | 1.7 | 2.6 | 0.02 | 1.01 | 0.81 | 96 | 1014.1 |
| 20260509212233 | 69 | 245 | 0.9 | 2.6 | 0.02 | 1.02 | 0.80 | 96 | 1014.2 |
| 20260509211953 | 69 | 275 | 0.9 | 2.6 | 0.01 | 1.02 | 0.80 | 96 | 1014.4 |
| 20260509211233 | 69 | 332 | 0.0 | 2.6 | 0.01 | 1.05 | 0.80 | 96 | 1014.0 |
| 20260509210733 | 69 | 218 | 0.0 | 2.6 | 0.01 | 1.08 | 0.80 | 96 | 1014.2 |
| 20260509210234 | 69 | 296 | 0.9 | 2.6 | 0.01 | 1.12 | 0.80 | 96 | 1013.7 |
| 20260509205952 | 69 | 294 | 1.7 | 1.7 | 0.01 | 1.18 | 0.80 | 96 | 1013.4 |
| 20260509205457 | 69 | 255 | 0.0 | 2.6 | 0.00 | 1.19 | 0.79 | 95 | 1013.6 |
| 20260509205005 | 69 | 252 | 0.0 | 2.6 | 0.00 | 1.21 | 0.79 | 95 | 1013.7 |
| 20260509204233 | 69 | 327 | 1.7 | 2.6 | 0.00 | 1.23 | 0.79 | 95 | 1013.5 |
| 20260509203733 | 69 | 263 | 0.9 | 2.6 | 0.00 | 1.26 | 0.79 | 96 | 1013.3 |
| 20260509203233 | 69 | 278 | 0.9 | 2.6 | 0.00 | 1.31 | 0.79 | 96 | 1013.6 |
| 20260509202733 | 69 | 259 | 1.7 | 3.5 | 0.00 | 1.33 | 0.79 | 95 | 1013.9 |
| 20260509202234 | 69 | 242 | 1.7 | 3.5 | 0.00 | 1.35 | 0.79 | 95 | 1013.8 |
| 20260509201733 | 69 | 255 | 1.7 | 3.5 | 0.00 | 1.35 | 0.79 | 95 | 1013.7 |
| 20260509201233 | 69 | 313 | 0.9 | 3.5 | 0.00 | 1.35 | 0.79 | 94 | 1013.5 |
| 20260509200952 | 69 | 289 | 1.7 | 3.5 | 0.00 | 1.36 | 0.79 | 94 | 1013.6 |
| 20260509195733 | 69 | 237 | 0.9 | 2.6 | 0.00 | 1.37 | 0.79 | 95 | 1013.1 |
| 20260509195233 | 69 | 215 | 2.6 | 2.6 | 0.00 | 1.38 | 0.79 | 96 | 1012.8 |
| 20260509194953 | 69 | 292 | 1.7 | 4.3 | 0.00 | 1.39 | 0.79 | 94 | 1013.0 |
| 20260509194233 | 69 | 292 | 0.0 | 4.3 | 0.00 | 1.39 | 0.79 | 95 | 1012.8 |
| 20260509193733 | 69 | 216 | 3.5 | 4.3 | 0.00 | 1.41 | 0.79 | 95 | 1013.1 |
| 20260509193233 | 69 | 251 | 4.3 | 4.3 | 0.00 | 1.42 | 0.79 | 95 | 1013.0 |
| 20260509192733 | 69 | 292 | 1.7 | 2.6 | 0.00 | 1.42 | 0.79 | 96 | 1011.5 |
| 20260509192233 | 69 | 309 | 0.0 | 2.6 | 0.00 | 1.43 | 0.79 | 95 | 1012.2 |
| 20260509191733 | 69 | 169 | 0.9 | 3.5 | 0.00 | 1.43 | 0.79 | 95 | 1012.0 |
| 20260509191453 | 69 | 279 | 0.9 | 3.5 | 0.00 | 1.43 | 0.79 | 94 | 1012.1 |
| 20260509190740 | 69 | 277 | 2.6 | 3.5 | 0.00 | 1.43 | 0.79 | 94 | 1012.1 |
| 20260509190233 | 69 | 204 | 1.7 | 2.6 | 0.00 | 1.43 | 0.78 | 94 | 1011.8 |
| 20260509185733 | 69 | 304 | 0.0 | 2.6 | 0.00 | 1.43 | 0.78 | 95 | 1012.1 |
| 20260509185458 | 69 | 291 | 0.9 | 2.6 | 0.00 | 1.44 | 0.78 | 93 | 1012.5 |
| 20260509184948 | 69 | 220 | 0.9 | 3.5 | 0.00 | 1.44 | 0.78 | 93 | 1012.5 |
| 20260509184453 | 69 | 269 | 0.0 | 4.3 | 0.00 | 1.44 | 0.78 | 92 | 1013.0 |
| 20260509183734 | 69 | 297 | 0.0 | 5.2 | 0.00 | 1.44 | 0.78 | 92 | 1013.0 |
| 20260509183233 | 69 | 210 | 2.6 | 5.2 | 0.00 | 1.44 | 0.78 | 91 | 1013.2 |
| 20260509182733 | 69 | 254 | 1.7 | 5.2 | 0.00 | 1.44 | 0.78 | 92 | 1013.2 |
| 20260509182458 | 69 | 303 | 2.6 | 5.2 | 0.00 | 1.44 | 0.78 | 91 | 1013.0 |
| 20260509181733 | 69 | 234 | 0.9 | 5.2 | 0.00 | 1.44 | 0.78 | 92 | 1013.1 |
| 20260509181233 | 68 | 269 | 0.0 | 4.3 | 0.00 | 1.44 | 0.78 | 94 | 1012.9 |
| 20260509180747 | 68 | 312 | 0.0 | 4.3 | 0.00 | 1.44 | 0.78 | 94 | 1012.9 |
| 20260509180233 | 68 | 86 | 0.9 | 3.5 | 0.00 | 1.44 | 0.78 | 94 | 1013.0 |
| 20260509175952 | 67 | 240 | 0.0 | 2.6 | 0.00 | 1.44 | 0.78 | 95 | 1012.9 |
| 20260509175233 | 67 | 197 | 0.0 | 5.2 | 0.01 | 1.44 | 0.78 | 96 | 1012.8 |
| 20260509174733 | 67 | 266 | 0.9 | 5.2 | 0.01 | 1.44 | 0.78 | 96 | 1012.8 |
| 20260509174234 | 67 | 238 | 2.6 | 5.2 | 0.02 | 1.44 | 0.78 | 96 | 1013.1 |
| 20260509173733 | 67 | 111 | 0.9 | 3.5 | 0.03 | 1.44 | 0.78 | 96 | 1013.3 |
| 20260509173234 | 67 | 180 | 0.0 | 5.2 | 0.05 | 1.44 | 0.78 | 96 | 1013.4 |
| 20260509172733 | 66 | 169 | 0.9 | 5.2 | 0.06 | 1.44 | 0.78 | 96 | 1014.0 |
| 20260509172233 | 66 | 11 | 1.7 | 3.5 | 0.08 | 1.44 | 0.78 | 97 | 1014.2 |
| 20260509171733 | 66 | 29 | 1.7 | 2.6 | 0.10 | 1.44 | 0.78 | 97 | 1014.4 |
| 20260509171233 | 66 | 247 | 0.9 | 2.6 | 0.14 | 1.44 | 0.78 | 97 | 1014.7 |
| 20260509170733 | 66 | 67 | 0.9 | 2.6 | 0.16 | 1.44 | 0.78 | 97 | 1014.9 |
| 20260509170232 | 66 | 315 | 0.0 | 3.5 | 0.18 | 1.44 | 0.78 | 97 | 1015.0 |
| 20260509165956 | 65 | 3 | 0.0 | 4.3 | 0.20 | 1.44 | 0.78 | 97 | 1015.1 |
| 20260509165234 | 65 | 320 | 0.9 | 4.3 | 0.22 | 1.43 | 0.78 | 98 | 1015.2 |